Location: Miss�
(46.9484°N, 0.1922°W)
Time: 08:09:10
(UTC+00:00)

Meteor 2-20 - Pass Details

Date: 02 March 2021
Orbit: 940 x 958 km, 82.5° (Epoch: 11 April)

Event Time Altitude Azimuth Distance (km) Brightness Sun altitude
Rises 20:11:12 0° 352° (N) 3,622 7.8 -25.0°
Reaches altitude 10° 20:13:43 10° 354° (N) 2,675 7.1 -25.4°
Maximum altitude 20:19:49 71° 79° (ENE) 1,002 4.3 -26.4°
Enters shadow 20:20:15 68° 109° (ESE) 1,016 4.3 -26.4°
